Погода в Нижнем Архызе

Россия / Карачаево-Черкесская Республика     43°40′39″N   41°27′27″E
темп.,
°C
ветер,
м/с
пор.,
м/с
влажн.,
%
обл.,
%
осадки,
мм/ч
давл.,
гПа
погр.,
м
6 мая, чт
чт600:00+4ююз22770 0.0 101629
03:00+4ююз22770 0.0 101525
06:00+5ююз22705 0.0 101440
09:00+13с224716 0.0 1012665
12:00+17с343922 0.0 10101489
15:00+15ссв426162 0.3 10111174
18:00+12с238098 0.6 1012220
21:00+8ююз2288100 0.6 101426
7 мая, пт
пт700:00+7ююз3379100 0.0 101546
03:00+6ююз338148 0.0 101547
06:00+7ююз337692 0.0 101661
09:00+14с225211 0.0 10161266
12:00+15ссв426036 0.5 10161170
15:00+11ссв2491100 2.9 1017339
18:00+9юв0197100 3.6 1019118
21:00+8юв009546 3.7 102013
8 мая, сб
сб800:00+6ю22924 0.0 101919
03:00+5ююз328823 0.0 101937
06:00+6ююз33816 0.0 101748
09:00+15с214893 0.0 1014540
12:00+18ссв3242100 0.0 10131158
15:00+17ссв3252100 0.0 10131254
18:00+14ссв137897 0.1 1014209
21:00+9ю33753 0.1 101552
9 мая, вс
вс900:00+7ююз34526 0.0 101459
03:00+8ююз3460100 0.0 101170
06:00+9ююз3463100 0.0 100996
09:00+9ююз2587100 3.3 1011444
12:00+16зюз265172 0.7 10101574
15:00+5с3397100 2.6 1016420
18:00+1ссв11100100 8.7 1023109
21:000сз13100100 12.8 1026248
10 мая, пн
пн1000:00−1сз1599100 0.9 1026363
03:00−3ююз229513 1.3 102632
06:00−2ююз33905 0.0 102668
09:00+3с2276100 0.0 1022848
12:00+5ссз3475100 0.4 1020909
15:00+5с2381100 2.3 1019546
18:00+3вюв1290100 1.3 1020347
21:00−2ююз349152 1.5 102376